TimeEEST,TemperatureF,Dew PointF,Humidity,Sea Level PressureIn,VisibilityMPH,Wind Direction,Wind SpeedMPH,Gust SpeedMPH,PrecipitationIn,Events,Conditions,WindDirDegrees,DateUTC
12:50 AM,44.6,39.2,81,30.24,6.2,ENE,2.3,-,N/A,,Mostly Cloudy,70,2012-10-20 21:50:00
3:00 AM,42,38,83,,7,ESE,2.3,,,,Partly Cloudy,110,2012-10-21 00:00:00
3:50 AM,42.8,39.2,87,30.24,6.2,ENE,6.9,-,N/A,,Mostly Cloudy,60,2012-10-21 00:50:00
4:50 AM,42.8,39.2,87,30.24,6.2,Variable,2.3,-,N/A,,Mostly Cloudy,0,2012-10-21 01:50:00
5:50 AM,42.8,39.2,87,30.24,6.2,ENE,4.6,-,N/A,,Mostly Cloudy,60,2012-10-21 02:50:00
7:50 AM,50.0,42.8,76,30.27,6.2,ENE,4.6,-,N/A,,Mostly Cloudy,60,2012-10-21 04:50:00
8:50 AM,53.6,39.2,58,30.30,6.2,Variable,1.2,-,N/A,,Mostly Cloudy,0,2012-10-21 05:50:00
9:00 AM,53,40,51,,6,NNE,1.2,,,,Partly Cloudy,20,2012-10-21 06:00:00
9:50 AM,51.8,48.2,88,30.30,4.3,ENE,3.5,-,N/A,Rain,Light Rain Showers,60,2012-10-21 06:50:00
10:50 AM,51.8,46.4,82,30.30,6.2,Variable,2.3,-,N/A,,Mostly Cloudy,0,2012-10-21 07:50:00
11:50 AM,51.8,46.4,82,30.30,6.2,SSE,2.3,-,N/A,,Mostly Cloudy,150,2012-10-21 08:50:00
12:50 PM,55.4,41.0,58,30.27,6.2,SSE,11.5,-,N/A,,Mostly Cloudy,160,2012-10-21 09:50:00
1:50 PM,57.2,41.0,55,30.27,6.2,SE,10.4,-,N/A,,Mostly Cloudy,140,2012-10-21 10:50:00
2:50 PM,55.4,41.0,58,30.24,6.2,ESE,11.5,-,N/A,,Mostly Cloudy,110,2012-10-21 11:50:00
3:00 PM,56,40,43,,6,ESE,11.5,,,,Partly Cloudy,110,2012-10-21 12:00:00
3:50 PM,59.0,39.2,48,30.24,6.2,SE,9.2,-,N/A,,Mostly Cloudy,130,2012-10-21 12:50:00
4:50 PM,55.4,39.2,54,30.27,6.2,SE,9.2,-,N/A,,Scattered Clouds,130,2012-10-21 13:50:00
5:50 PM,51.8,39.2,62,30.27,6.2,Variable,4.6,-,N/A,,Scattered Clouds,0,2012-10-21 14:50:00
6:50 PM,50.0,39.2,66,30.27,6.2,East,3.5,-,N/A,,Scattered Clouds,90,2012-10-21 15:50:00
7:50 PM,46.4,39.2,76,30.27,6.2,Variable,2.3,-,N/A,,Scattered Clouds,0,2012-10-21 16:50:00
8:50 PM,42.8,37.4,81,30.27,6.2,NE,4.6,-,N/A,,Partly Cloudy,40,2012-10-21 17:50:00
9:00 PM,42,38,79,,6,NE,4.6,,,,Partly Cloudy,40,2012-10-21 18:00:00
9:50 PM,42.8,37.4,81,30.27,6.2,East,2.3,-,N/A,,Partly Cloudy,80,2012-10-21 18:50:00
10:50 PM,41.0,37.4,87,30.27,-9999.0,Variable,2.3,-,N/A,,Clear,0,2012-10-21 19:50:00
11:50 PM,41.0,37.4,87,30.27,-9999.0,ENE,3.5,-,N/A,,Clear,70,2012-10-21 20:50:00